Wind_Speed
2 3 4 3 4 4 6 7 8 8 8 8 8 7 7 7 8 8 9 8 7 7 7 7 6 6 5 5 5 5 5 4 4 2 2 2 3 2 2 2 1 1 1
2 3 3 3 3 4 6 8 8 9 8 8 7 7 7 8 9 8 7 7 7 7 7 6 5 5 5 5 5 4 3 3 3 2 1 2 2 1 1 1 0 1 2
3 3 3 3 3 4 5 7 8 8 8 7 7 6 6 7 8 8 7 7 6 6 6 6 5 5 4 4 4 3 2 2 2 1 0 1 1 0 0 1 2 2 2
3 3 2 3 3 4 4 5 6 7 7 6 6 6 6 7 7 7 7 6 6 5 5 5 5 5 4 3 3 2 2 2 1 1 0 0 1 1 0 1 2 2 2
2 2 2 3 3 4 4 5 6 7 7 6 6 6 5 6 7 6 6 6 6 5 5 5 5 4 3 2 2 1 1 1 0 1 0 1 1 1 1 2 2 2 1
3 3 3 3 4 4 5 5 5 6 6 6 6 5 5 6 6 6 5 5 6 5 5 4 4 3 2 2 1 1 0 0 0 0 0 1 1 1 2 2 2 2 2
4 4 4 4 4 5 5 5 5 5 5 6 5 4 4 5 6 6 5 5 5 4 4 4 3 2 2 1 1 0 1 1 0 1 1 1 1 2 3 3 3 3 3
5 5 5 4 5 5 5 5 5 5 5 5 5 4 4 5 5 5 4 4 4 3 3 3 3 2 1 1 1 1 1 2 2 1 1 2 2 2 3 4 3 3 4
5 5 5 5 5 5 5 5 5 5 5 5 4 4 4 4 3 3 4 4 3 3 2 2 1 1 1 1 1 1 1 2 2 2 2 2 1 2 3 4 4 4 5
6 6 6 6 6 6 6 6 6 5 5 5 4 4 4 4 3 3 3 3 3 3 2 1 1 1 2 2 2 2 3 3 3 3 3 3 2 3 3 4 5 5 6
8 8 7 8 7 7 7 7 6 6 6 6 5 4 4 4 3 3 3 3 3 2 1 1 1 2 2 3 3 4 4 4 3 4 3 3 3 4 5 5 6 6 7
10 9 10 9 8 8 8 7 7 6 6 6 5 5 4 3 2 2 3 2 2 2 1 1 1 2 3 4 5 5 4 3 3 3 3 4 4 5 6 6 7 8 8
10 10 10 10 9 9 9 8 7 7 6 5 5 4 3 2 2 2 2 1 1 2 2 2 2 2 2 3 3 2 2 2 3 3 3 4 4 5 6 7 7 8 8
10 11 11 10 9 9 8 8 7 7 6 5 4 4 3 3 2 2 2 1 2 2 2 2 2 2 2 3 3 2 1 1 2 3 3 4 5 6 7 7 7 8 9
10 10 10 10 9 8 8 7 6 6 6 5 4 2 2 2 2 2 2 2 2 2 3 3 3 3 3 4 4 3 2 2 3 3 4 5 6 6 7 8 9 9 9
10 10 9 9 9 8 7 6 5 5 5 4 3 2 2 2 2 2 2 2 3 3 3 3 4 3 3 4 3 2 3 3 3 3 4 5 6 6 7 8 9 9 10
10 10 9 8 8 8 7 6 5 4 4 4 4 3 3 3 3 3 3 4 4 4 4 4 4 4 4 4 4 4 4 3 4 4 5 5 6 7 7 8 9 10 10
10 9 8 8 7 7 7 6 6 5 4 4 5 4 4 4 4 4 4 4 4 5 5 5 4 4 4 4 4 4 4 4 4 4 5 6 7 8 8 9 10 10 10
9 9 8 7 6 6 6 6 6 6 5 4 5 5 5 5 5 5 5 4 5 5 5 6 6 6 5 5 4 4 5 5 5 5 6 7 7 8 9 10 10 10 11
9 9 8 7 7 6 6 6 6 7 6 5 5 5 4 4 4 5 5 5 5 5 6 6 6 6 6 6 6 5 5 6 6 6 7 8 8 9 9 10 10 10 11
8 8 8 7 7 6 7 7 7 7 7 6 6 6 4 4 4 5 5 5 5 5 6 6 6 6 6 6 6 6 6 6 6 8 8 9 9 9 10 10 10 11 11
7 8 7 7 7 7 7 7 7 6 6 6 6 6 6 5 5 4 5 5 5 5 6 6 6 6 7 7 7 7 7 7 8 8 9 10 10 10 9 10 11 12 12
7 7 7 7 7 7 7 7 7 6 5 5 6 6 6 5 4 5 5 5 5 5 6 6 7 7 7 8 8 7 8 8 7 8 8 9 10 10 10 11 12 12 12
6 6 6 6 6 6 6 6 6 6 6 6 6 5 5 4 4 4 5 5 5 5 6 6 7 7 8 8 8 8 8 9 9 9 10 10 11 11 11 12 13 13 12
5 5 6 6 6 6 6 6 5 6 6 6 6 5 5 4 4 4 4 4 5 6 6 7 7 8 8 8 8 8 8 9 10 11 11 11 12 12 13 13 14 14 13
6 5 5 6 5 6 5 5 5 5 5 5 5 5 5 4 4 4 4 4 5 5 6 7 7 8 9 9 9 8 9 9 10 11 12 13 13 14 14 15 15 14 15
Wind_Direction
131 146 147 137 153 147 148 145 148 148 143 143 142 145 147 144 144 144 138 139 140 139 136 132 132 128 118 108 110 116 120 124 133 125 110 114 121 120 114 117 98 49 16
126 133 133 126 136 141 145 147 145 145 144 144 147 148 150 149 143 144 140 138 138 140 140 135 131 124 112 109 116 120 119 123 127 113 106 122 110 107 114 101 359 315 324
132 137 122 120 133 142 146 151 149 149 150 145 141 138 143 148 149 149 150 145 142 142 142 140 132 124 118 117 116 119 126 140 143 125 136 150 103 96 166 313 307 305 307
129 139 134 137 133 134 140 145 152 150 152 148 138 135 137 146 150 151 149 149 146 147 145 142 135 130 129 132 121 119 141 136 127 81 304 197 121 73 36 330 312 305 309
120 145 152 151 139 140 148 149 151 151 148 145 140 136 136 144 147 148 150 151 150 152 146 144 140 138 141 138 129 128 184 180 106 75 108 117 65 38 4 341 346 329 326
88 119 124 145 150 147 149 147 150 150 145 141 139 138 140 144 147 151 152 150 148 150 145 139 140 149 163 148 137 137 159 147 3 256 230 49 42 8 334 331 345 324 317
79 94 108 114 139 142 146 145 145 141 142 137 138 137 136 145 148 150 153 155 152 149 142 141 148 156 165 153 137 193 204 207 258 306 326 330 332 328 311 311 312 316 317
79 83 99 111 119 126 134 145 144 139 139 138 139 140 142 148 148 152 156 157 154 149 146 145 155 164 183 194 208 240 251 274 296 308 318 309 296 311 306 302 304 308 311
79 83 89 103 120 119 124 129 131 136 141 142 145 147 154 149 146 143 150 161 165 159 153 153 175 190 228 248 268 277 277 292 291 314 312 302 303 311 316 306 304 303 301
76 78 93 98 109 114 115 122 129 130 138 141 143 142 150 146 140 155 150 154 162 162 171 207 255 266 266 264 267 268 278 282 280 285 289 296 308 307 315 315 306 300 302
77 76 82 92 101 113 116 122 130 132 133 133 138 139 144 142 140 150 137 124 133 142 163 280 287 290 287 278 275 271 276 278 269 269 294 294 298 299 304 310 312 306 306
75 76 78 90 95 102 110 121 126 129 126 127 128 125 132 132 129 126 117 101 108 100 60 358 330 314 304 294 291 281 278 296 291 272 286 292 289 296 304 305 305 307 307
75 78 82 88 95 99 100 106 114 120 126 124 127 127 126 114 111 98 88 89 75 38 26 19 2 340 328 314 321 313 295 287 299 294 292 303 299 303 310 306 302 303 303
74 76 80 84 92 97 97 102 106 114 120 122 124 128 120 108 97 81 88 76 32 17 12 360 345 353 4 21 27 19 326 329 331 313 314 315 310 312 312 307 303 302 303
75 73 76 78 85 93 95 98 99 104 107 109 110 116 115 101 88 80 75 64 31 10 11 6 357 20 33 43 47 38 36 31 12 340 331 323 321 321 316 310 308 306 307
69 70 72 74 78 83 90 91 87 92 97 91 76 66 71 92 83 62 54 53 31 30 28 22 20 31 39 44 51 37 35 29 16 353 337 331 343 336 324 316 310 306 308
63 67 68 71 71 71 73 76 76 72 67 54 42 57 65 63 65 60 58 52 46 43 36 31 27 35 49 48 42 38 30 18 14 5 356 349 344 341 338 334 327 319 315
60 60 62 63 66 66 65 65 62 51 50 46 48 53 51 53 61 62 59 54 47 41 36 30 28 26 30 39 34 30 26 14 3 352 346 344 342 338 335 336 332 326 319
57 56 56 58 59 60 59 57 51 46 44 47 48 52 54 58 64 62 58 57 50 39 35 35 29 23 22 26 29 26 21 10 359 354 350 349 343 337 335 334 331 328 328
51 51 53 56 55 54 52 52 48 45 48 52 55 54 52 49 53 55 52 50 39 38 35 29 26 26 26 23 18 12 11 7 2 355 350 346 342 338 335 335 335 333 331
49 49 49 47 46 44 45 48 47 47 53 56 52 48 45 44 45 50 49 47 37 34 30 28 28 24 23 23 15 9 8 4 356 351 348 346 343 340 337 338 338 336 332
49 50 44 39 37 41 46 46 46 45 50 50 46 44 42 41 41 50 51 48 36 30 27 24 23 20 18 16 13 11 11 4 1 359 354 349 345 343 340 339 336 335 334
44 43 38 35 36 37 34 35 32 30 33 35 38 43 42 41 39 48 51 46 38 25 23 22 22 19 14 12 7 4 5 6 359 356 355 352 347 344 340 339 338 333 333
33 30 29 27 29 29 26 24 22 26 29 31 33 36 39 41 38 42 49 46 38 32 29 24 20 17 13 11 11 6 2 357 356 355 352 349 347 344 339 337 338 334 334
12 12 13 13 17 19 21 20 19 18 21 26 26 22 26 29 28 28 36 33 29 22 19 19 16 12 9 8 7 3 1 357 352 350 350 347 345 344 342 340 338 336 334
349 356 1 3 5 4 4 9 11 9 10 13 13 9 12 21 18 17 24 21 14 9 7 10 8 5 4 3 4 2 357 353 348 347 346 343 341 339 337 337 336 332 331
Height
5864 5864 5865 5865 5865 5866 5866 5867 5868 5869 5870 5870 5871 5872 5873 5874 5875 5876 5877 5878 5879 5880 5881 5882 5883 5883 5884 5884 5884 5885 5886 5887 5887 5888 5889 5889 5889 5890 5890 5891 5891 5892 5892
5865 5865 5865 5866 5866 5867 5867 5868 5869 5870 5871 5872 5872 5873 5874 5875 5876 5877 5878 5879 5880 5881 5882 5883 5884 5885 5885 5885 5886 5886 5887 5887 5888 5888 5889 5889 5890 5891 5891 5891 5892 5892 5892
5866 5866 5866 5866 5867 5868 5868 5869 5870 5871 5872 5873 5874 5875 5875 5876 5877 5878 5879 5880 5881 5882 5883 5884 5885 5885 5886 5886 5887 5887 5888 5888 5888 5889 5889 5890 5890 5891 5891 5891 5892 5892 5892
5867 5867 5867 5867 5868 5868 5869 5870 5871 5872 5873 5874 5875 5876 5877 5877 5878 5879 5880 5881 5882 5883 5884 5885 5886 5886 5887 5887 5888 5888 5888 5889 5889 5889 5890 5890 5890 5891 5891 5892 5892 5892 5892
5867 5867 5867 5868 5868 5869 5870 5871 5872 5873 5874 5875 5876 5877 5878 5878 5879 5880 5881 5882 5883 5884 5885 5886 5886 5887 5887 5888 5888 5889 5889 5889 5889 5890 5890 5890 5891 5891 5892 5892 5892 5892 5892
5868 5868 5867 5868 5869 5870 5871 5872 5873 5874 5875 5876 5878 5878 5879 5880 5880 5881 5882 5883 5884 5885 5885 5886 5887 5887 5888 5888 5889 5889 5889 5890 5890 5890 5890 5891 5891 5892 5892 5892 5892 5892 5892
5869 5868 5867 5868 5869 5871 5872 5873 5875 5875 5876 5878 5879 5880 5880 5881 5881 5882 5883 5884 5885 5885 5886 5886 5887 5888 5888 5888 5889 5889 5889 5890 5890 5890 5891 5891 5892 5892 5892 5892 5892 5892 5892
5870 5870 5869 5869 5870 5872 5873 5874 5876 5877 5878 5879 5880 5881 5881 5882 5882 5883 5884 5885 5885 5886 5886 5887 5887 5888 5888 5888 5889 5889 5889 5890 5890 5891 5891 5891 5891 5892 5892 5892 5892 5891 5891
5872 5871 5871 5871 5872 5873 5874 5875 5877 5878 5879 5880 5881 5882 5882 5883 5883 5884 5885 5885 5886 5886 5887 5888 5888 5888 5888 5888 5888 5889 5889 5890 5890 5890 5891 5891 5891 5892 5892 5891 5891 5891 5891
5874 5873 5873 5872 5873 5874 5875 5877 5878 5879 5880 5881 5882 5883 5883 5884 5884 5885 5885 5886 5886 5887 5887 5888 5888 5888 5888 5888 5888 5888 5889 5889 5890 5890 5890 5890 5891 5891 5891 5891 5891 5890 5890
5876 5875 5874 5873 5874 5875 5877 5878 5880 5881 5881 5882 5883 5884 5884 5885 5885 5886 5886 5887 5887 5887 5887 5888 5888 5888 5887 5887 5887 5887 5887 5888 5889 5889 5890 5890 5890 5890 5890 5890 5890 5890 5889
5878 5877 5876 5876 5876 5878 5879 5880 5881 5882 5883 5884 5884 5885 5885 5886 5886 5887 5887 5888 5888 5888 5888 5888 5888 5887 5887 5886 5885 5885 5885 5887 5888 5888 5888 5889 5889 5889 5889 5889 5889 5889 5888
5881 5880 5880 5879 5880 5881 5881 5882 5883 5884 5885 5885 5886 5886 5887 5887 5887 5888 5888 5889 5889 5889 5889 5889 5888 5888 5886 5885 5883 5882 5884 5886 5888 5888 5888 5888 5888 5888 5888 5888 5888 5887 5887
5884 5883 5883 5883 5883 5883 5884 5884 5885 5886 5886 5887 5887 5887 5888 5888 5888 5888 5889 5889 5890 5890 5890 5889 5889 5888 5887 5886 5884 5884 5885 5886 5887 5887 5888 5888 5887 5887 5887 5887 5887 5886 5885
5886 5886 5886 5886 5886 5886 5886 5886 5887 5887 5888 5888 5888 5888 5889 5889 5889 5889 5890 5890 5890 5890 5890 5890 5889 5888 5888 5887 5886 5886 5886 5887 5887 5887 5888 5887 5887 5886 5886 5886 5885 5885 5884
5889 5889 5889 5889 5888 5888 5889 5889 5889 5889 5889 5889 5889 5890 5890 5890 5890 5890 5891 5891 5891 5891 5890 5890 5890 5889 5889 5888 5888 5888 5887 5887 5888 5888 5887 5887 5886 5886 5885 5885 5884 5883 5882
5892 5892 5891 5891 5891 5891 5891 5891 5891 5891 5891 5891 5891 5891 5891 5891 5891 5892 5891 5891 5891 5891 5891 5890 5890 5890 5889 5889 5888 5888 5888 5888 5888 5888 5887 5887 5886 5885 5884 5884 5883 5882 5881
5895 5894 5894 5894 5894 5894 5894 5893 5893 5893 5892 5893 5892 5892 5892 5892 5892 5892 5892 5892 5892 5892 5892 5891 5890 5890 5890 5889 5889 5889 5888 5888 5888 5888 5887 5886 5885 5885 5884 5883 5882 5880 5879
5897 5897 5896 5896 5896 5896 5896 5895 5895 5895 5894 5894 5894 5893 5893 5893 5893 5894 5894 5893 5893 5893 5892 5892 5891 5891 5890 5890 5889 5889 5889 5888 5888 5887 5887 5886 5885 5884 5883 5882 5881 5879 5878
5899 5899 5898 5898 5898 5898 5898 5897 5897 5896 5896 5895 5895 5895 5894 5894 5894 5895 5894 5894 5894 5894 5893 5893 5893 5892 5891 5890 5890 5890 5889 5889 5888 5887 5887 5885 5884 5883 5882 5881 5879 5878 5876
5901 5901 5900 5900 5900 5900 5899 5899 5899 5898 5897 5897 5897 5896 5896 5895 5895 5895 5895 5895 5895 5895 5894 5894 5894 5893 5892 5891 5891 5890 5889 5889 5888 5887 5886 5885 5884 5882 5881 5880 5878 5876 5875
5903 5903 5902 5902 5901 5901 5901 5900 5900 5900 5899 5899 5898 5897 5897 5896 5896 5896 5896 5896 5896 5896 5895 5895 5894 5894 5893 5892 5891 5891 5890 5889 5888 5887 5886 5884 5883 5882 5880 5878 5877 5875 5873
5905 5905 5904 5904 5903 5903 5902 5902 5901 5901 5900 5900 5899 5898 5898 5897 5897 5897 5897 5897 5897 5896 5896 5895 5895 5894 5893 5892 5891 5891 5890 5889 5888 5887 5885 5884 5882 5881 5879 5877 5876 5874 5872
5906 5906 5905 5905 5904 5904 5903 5903 5902 5902 5902 5901 5900 5900 5899 5898 5898 5898 5897 5897 5897 5897 5896 5896 5895 5894 5893 5892 5891 5890 5889 5888 5887 5886 5885 5883 5882 5880 5878 5876 5874 5872 5871
5907 5907 5906 5906 5905 5905 5904 5904 5904 5903 5902 5902 5901 5900 5900 5899 5899 5898 5898 5898 5898 5897 5897 5896 5896 5895 5894 5892 5891 5890 5889 5888 5887 5886 5884 5883 5881 5879 5877 5875 5873 5871 5869
5908 5907 5907 5907 5906 5905 5905 5904 5904 5904 5903 5903 5902 5901 5901 5900 5900 5899 5899 5899 5898 5898 5897 5897 5896 5895 5894 5892 5891 5890 5889 5887 5886 5885 5883 5881 5880 5878 5876 5874 5871 5869 5867